Retour au catalogue

STARLINK-31372

ActifCommunicationsVLEO
NORAD 58939·PAYLOAD·🇺🇸 United States

Lancé Feb 10, 2024 depuis Vandenberg Space Force Base

Loading…

Prochains Passages (prochaines 24 heures)

TLE

FraisSource: CelesTrak SupGP

Époque: Sep 15, 2026, 03:04 UTC

1 58939C 24027J   26258.12826389  .00013761  00000+0  40663-3 0  2588
2 58939  53.1581 149.0200 0001300  89.3321 207.7792 15.34378490    14

Suivez STARLINK-31372 en temps réel avec AllMySat

Download on the App Store